• In Czech Republic
  • List of Countries
  • For 7 days
  • Water Temperature
  • Satellite Maps
  • Weather Map
  • Weather Widgets
  • user-avatar
    Login

    Hourly Weather Dhamar

    Today, 19 January, Friday

    Time Temperature Precipitation Wind Pressure Humidity
    00:00 +12°C° 0 mm 0 mps 583 mmHg 59%
    01:00 +11°C° 0 mm 0 mps 582 mmHg 60%
    02:00 +11°C° 0 mm 0 mps 582 mmHg 61%
    03:00 +10°C° 0 mm 0 mps 581 mmHg 62%
    04:00 +10°C° 0 mm 0 mps 581 mmHg 63%
    05:00 +9°C° 0 mm 0 mps 581 mmHg 63%
    06:00 +9°C° 0 mm 0 mps 581 mmHg 64%
    07:00 +11°C° 0 mm 0 mps 582 mmHg 54%
    08:00 +14°C° 0 mm 1 mps 584 mmHg 44%
    09:00 +16°C° 0 mm 1 mps 585 mmHg 31%
    10:00 +17°C° 0 mm 2 mps 585 mmHg 29%
    11:00 +19°C° 0 mm 3 mps 586 mmHg 26%
    12:00 +20°C° 0 mm 3 mps 586 mmHg 23%
    13:00 +20°C° 0 mm 4 mps 586 mmHg 24%
    14:00 +20°C° 0 mm 4 mps 586 mmHg 25%
    15:00 +21°C° 0 mm 4 mps 585 mmHg 26%
    16:00 +19°C° 0 mm 4 mps 585 mmHg 31%
    17:00 +18°C° 0 mm 4 mps 585 mmHg 35%
    18:00 +17°C° 0 mm 4 mps 584 mmHg 40%
    19:00 +16°C° 0 mm 3 mps 584 mmHg 45%
    20:00 +16°C° 0 mm 2 mps 584 mmHg 50%
    21:00 +15°C° 0 mm 1 mps 584 mmHg 55%
    22:00 +14°C° 0 mm 1 mps 584 mmHg 58%
    23:00 +14°C° 0 mm 1 mps 584 mmHg 60%

    Tomorrow, 20 January, Saturday

    Time Temperature Precipitation Wind Pressure Humidity
    00:00 +12°C° 0 mm 0 mps 584 mmHg 63%
    01:00 +12°C° 0 mm 0 mps 583 mmHg 65%
    02:00 +11°C° 0 mm 0 mps 583 mmHg 67%
    03:00 +11°C° 0 mm 0 mps 583 mmHg 69%
    04:00 +10°C° 0 mm 0 mps 583 mmHg 70%
    05:00 +10°C° 0 mm 0 mps 583 mmHg 72%
    06:00 +9°C° 0 mm 0 mps 582 mmHg 74%
    07:00 +11°C° 0 mm 0 mps 584 mmHg 64%
    08:00 +13°C° 0 mm 0 mps 585 mmHg 55%
    09:00 +15°C° 0 mm 1 mps 586 mmHg 46%
    10:00 +18°C° 0 mm 1 mps 586 mmHg 41%
    11:00 +19°C° 0 mm 1 mps 587 mmHg 37%
    12:00 +19°C° 0 mm 2 mps 587 mmHg 32%
    13:00 +20°C° 0 mm 2 mps 586 mmHg 34%
    14:00 +20°C° 0 mm 3 mps 586 mmHg 36%
    15:00 +20°C° 0 mm 3 mps 586 mmHg 38%
    16:00 +19°C° 0 mm 3 mps 585 mmHg 45%
    17:00 +18°C° 0 mm 3 mps 585 mmHg 53%
    18:00 +17°C° 0 mm 3 mps 585 mmHg 60%
    19:00 +16°C° 0.1 mm 2 mps 585 mmHg 64%
    20:00 +16°C° 0.1 mm 2 mps 585 mmHg 67%
    21:00 +15°C° 0.1 mm 1 mps 585 mmHg 70%
    22:00 +15°C° 0.1 mm 1 mps 585 mmHg 68%
    23:00 +15°C° 0.1 mm 2 mps 585 mmHg 65%

    Day after tomorrow, 21 January, Sunday

    Time Temperature Precipitation Wind Pressure Humidity
    00:00 +15°C° 0.1 mm 2 mps 585 mmHg 62%
    01:00 +14°C° 0 mm 2 mps 585 mmHg 61%
    02:00 +14°C° 0 mm 1 mps 584 mmHg 60%
    03:00 +13°C° 0 mm 1 mps 584 mmHg 59%
    04:00 +13°C° 0 mm 1 mps 584 mmHg 59%
    05:00 +13°C° 0 mm 1 mps 584 mmHg 58%
    06:00 +12°C° 0 mm 1 mps 584 mmHg 57%
    07:00 +13°C° 0 mm 2 mps 585 mmHg 52%
    08:00 +14°C° 0 mm 2 mps 586 mmHg 46%
    09:00 +15°C° 0 mm 2 mps 587 mmHg 40%
    10:00 +17°C° 0 mm 2 mps 587 mmHg 38%
    11:00 +18°C° 0 mm 2 mps 587 mmHg 35%
    12:00 +19°C° 0 mm 2 mps 587 mmHg 33%
    13:00 +19°C° 0 mm 3 mps 587 mmHg 34%
    14:00 +20°C° 0 mm 3 mps 587 mmHg 35%
    15:00 +20°C° 0 mm 3 mps 586 mmHg 36%
    16:00 +19°C° 0.1 mm 3 mps 586 mmHg 43%
    17:00 +18°C° 0.1 mm 3 mps 586 mmHg 49%
    18:00 +16°C° 0.1 mm 3 mps 585 mmHg 55%
    19:00 +16°C° 0.2 mm 3 mps 586 mmHg 54%
    20:00 +15°C° 0.2 mm 2 mps 586 mmHg 53%
    21:00 +15°C° 0.2 mm 2 mps 586 mmHg 52%
    22:00 +15°C° 0 mm 1 mps 586 mmHg 50%
    23:00 +14°C° 0 mm 1 mps 585 mmHg 47%

    22 January, Monday

    Time Temperature Precipitation Wind Pressure Humidity
    00:00 +14°C° 0 mm 1 mps 585 mmHg 45%
    01:00 +13°C° 0 mm 1 mps 584 mmHg 44%
    02:00 +13°C° 0 mm 1 mps 584 mmHg 44%
    03:00 +12°C° 0 mm 1 mps 583 mmHg 43%
    04:00 +12°C° 0 mm 1 mps 583 mmHg 43%
    05:00 +11°C° 0 mm 1 mps 583 mmHg 43%
    06:00 +11°C° 0 mm 1 mps 583 mmHg 44%
    07:00 +12°C° 0 mm 1 mps 584 mmHg 39%
    08:00 +14°C° 0 mm 1 mps 585 mmHg 34%
    09:00 +15°C° 0 mm 1 mps 586 mmHg 30%
    10:00 +18°C° 0 mm 1 mps 586 mmHg 28%
    11:00 +19°C° 0 mm 1 mps 586 mmHg 27%
    12:00 +19°C° 0 mm 2 mps 587 mmHg 25%
    13:00 +20°C° 0 mm 2 mps 586 mmHg 26%
    14:00 +20°C° 0 mm 2 mps 586 mmHg 27%
    15:00 +21°C° 0 mm 3 mps 585 mmHg 27%
    16:00 +20°C° 0 mm 3 mps 585 mmHg 33%
    17:00 +19°C° 0 mm 3 mps 585 mmHg 38%
    18:00 +18°C° 0 mm 2 mps 585 mmHg 44%
    19:00 +17°C° 0 mm 2 mps 585 mmHg 49%
    20:00 +16°C° 0 mm 1 mps 585 mmHg 54%
    21:00 +15°C° 0 mm 1 mps 585 mmHg 59%
    22:00 +15°C° 0 mm 1 mps 584 mmHg 60%
    23:00 +14°C° 0 mm 0 mps 584 mmHg 60%

    23 January, Tuesday

    Time Temperature Precipitation Wind Pressure Humidity
    00:00 +13°C° 0 mm 0 mps 584 mmHg 61%
    01:00 +13°C° 0 mm 0 mps 583 mmHg 62%
    02:00 +12°C° 0 mm 0 mps 582 mmHg 63%
    03:00 +12°C° 0 mm 0 mps 582 mmHg 64%
    04:00 +11°C° 0 mm 0 mps 582 mmHg 66%
    05:00 +11°C° 0 mm 0 mps 582 mmHg 68%
    06:00 +10°C° 0 mm 0 mps 582 mmHg 70%
    07:00 +12°C° 0 mm 0 mps 583 mmHg 63%
    08:00 +14°C° 0 mm 0 mps 584 mmHg 55%
    09:00 +15°C° 0 mm 0 mps 585 mmHg 47%
    10:00 +19°C° 0 mm 1 mps 586 mmHg 41%
    11:00 +20°C° 0 mm 1 mps 586 mmHg 35%
    12:00 +21°C° 0 mm 2 mps 586 mmHg 29%
    13:00 +21°C° 0 mm 2 mps 586 mmHg 29%
    14:00 +21°C° 0 mm 3 mps 585 mmHg 30%
    15:00 +22°C° 0 mm 3 mps 585 mmHg 30%
    16:00 +21°C° 0 mm 3 mps 584 mmHg 35%
    17:00 +19°C° 0 mm 3 mps 584 mmHg 41%
    18:00 +18°C° 0 mm 3 mps 584 mmHg 46%
    19:00 +17°C° 0 mm 2 mps 584 mmHg 51%
    20:00 +16°C° 0 mm 2 mps 584 mmHg 55%
    21:00 +15°C° 0 mm 1 mps 584 mmHg 60%
    22:00 +15°C° 0 mm 1 mps 584 mmHg 62%
    23:00 +14°C° 0 mm 1 mps 583 mmHg 65%

    24 January, Wednesday

    Time Temperature Precipitation Wind Pressure Humidity
    00:00 +13°C° 0 mm 0 mps 583 mmHg 67%
    01:00 +12°C° 0 mm 0 mps 582 mmHg 68%
    02:00 +12°C° 0 mm 0 mps 582 mmHg 69%
    03:00 +12°C° 0 mm 0 mps 581 mmHg 70%
    04:00 +11°C° 0 mm 0 mps 581 mmHg 70%
    05:00 +11°C° 0 mm 0 mps 581 mmHg 71%
    06:00 +10°C° 0 mm 0 mps 581 mmHg 71%
    07:00 +12°C° 0 mm 0 mps 583 mmHg 62%
    08:00 +14°C° 0 mm 1 mps 584 mmHg 54%
    09:00 +16°C° 0 mm 1 mps 585 mmHg 45%
    10:00 +17°C° 0 mm 2 mps 585 mmHg 40%
    11:00 +19°C° 0 mm 3 mps 585 mmHg 35%
    12:00 +20°C° 0 mm 3 mps 586 mmHg 30%
    13:00 +20°C° 0 mm 4 mps 585 mmHg 32%
    14:00 +20°C° 0 mm 4 mps 585 mmHg 33%
    15:00 +20°C° 0 mm 4 mps 585 mmHg 35%
    16:00 +19°C° 0 mm 4 mps 584 mmHg 40%
    17:00 +18°C° 0 mm 4 mps 584 mmHg 45%
    18:00 +17°C° 0 mm 4 mps 584 mmHg 49%
    19:00 +16°C° 0 mm 3 mps 584 mmHg 50%
    20:00 +15°C° 0 mm 2 mps 584 mmHg 51%
    21:00 +15°C° 0 mm 1 mps 584 mmHg 52%
    22:00 +14°C° 0 mm 1 mps 583 mmHg 53%
    23:00 +14°C° 0 mm 1 mps 583 mmHg 53%
    Show more